Content
SEND FEEDBACK

Daily
Averages
Monthly
Summary
United States of America

ST. LOUIS - SAINT LOUIS UNIVERSITY, MISSOURI


Home > North America > United States > Missouri
Elevation: 580 feet     Latitude: 38 38N     Longitude: 090 14W

WEATHER
 
SELECT A DAY
Number of Records: 190,091;   Date Range: 1/1/95 - 11/27/14
 
SHARE

PRINT THIS DATA

[ ← Previous Day ]
WEATHER ALMANAC - MARCH 20, 2013
[ Next Day → ]
[ °C ]   °F
Weather ElementAverageHighLow
Temperature31.3 °F35.1 °F (1:53 am)26.1 °F (10:53 pm)
Dewpoint17.9 °F28 °F (4:53 am)12 °F (6:53 pm)
Humidity58.6 %79 % (4:53 am)43 % (5:53 pm)
Barometer30.22 in30.29 in (9:53 am)30.14 in (10:53 pm)
Wind Speed14.1 mph21.9 mph (1:53 pm)
Wind Gust29.9 mph (11:53 am)
Weather ElementAverage
Visibility10 mi
Wind DirectionWNW (308.5 °)

Weather ElementTotal
Precipitation---
Heating Degree Days34.4 (Base 65)
Averaged from 27 records on March 20, 2013
WEATHER CONDITIONS BREAKOUT
WIND DIRECTION BREAKOUT
WEATHER BY HOUR - MARCH 20, 2013
[ °C ]   °F
Local TimeTemperatureDewpointHumidityBarometerVisibilityWind DirectionWind SpeedGust SpeedPrecipitationEventsConditions
1:53 AM35.1 °F23.0 °F61 %30.19 in10.0 miSSW (210°)3.5 mphClear
2:53 AM34.0 °F24.1 °F67 %30.18 in10.0 miSW (230°)4.6 mphClear
3:53 AM33.1 °F26.1 °F75 %30.19 in10.0 miWSW (240°)3.5 mphClear
4:53 AM34.0 °F28.0 °F79 %30.19 in10.0 miWNW (300°)13.8 mphPartly Cloudy
5:53 AM32.0 °F26.1 °F79 %30.20 in10.0 miNW (310°)9.2 mphClear
6:53 AM30.9 °F21.9 °F69 %30.22 in10.0 miNW (310°)10.4 mphClear
7:53 AM30.9 °F19.9 °F64 %30.25 in10.0 miNNW (340°)18.4 mph23.0 mphClear
8:20 AM30.2 °F19.4 °F64 %30.26 in10.0 miNNW (330°)15.0 mph23.0 mphMostly Cloudy
8:31 AM30.2 °F19.4 °F64 %30.26 in10.0 miNNW (340°)15.0 mphMostly Cloudy
8:42 AM30.2 °F19.4 °F64 %30.26 in10.0 miNNW (340°)16.1 mphOvercast
8:53 AM30.0 °F19.9 °F66 %30.27 in10.0 miNNW (330°)16.1 mphOvercast
9:12 AM30.2 °F17.6 °F60 %30.27 in10.0 miNNW (330°)17.3 mphOvercast
9:53 AM30.0 °F17.1 °F59 %30.29 in10.0 miNW (310°)19.6 mphMostly Cloudy
10:53 AM30.0 °F17.1 °F59 %30.29 in10.0 miNW (310°)18.4 mph25.3 mphOvercast
11:53 AM30.9 °F17.1 °F57 %30.29 in10.0 miNNW (340°)18.4 mph29.9 mphScattered Clouds
12:53 PM33.1 °F17.1 °F52 %30.26 in10.0 miNW (320°)20.7 mph25.3 mphScattered Clouds
1:53 PM33.1 °F16.0 °F50 %30.24 in10.0 miNW (310°)21.9 mph27.6 mphMostly Cloudy
2:53 PM34.0 °F19.0 °F54 %30.21 in10.0 miNW (310°)17.3 mph25.3 mphMostly Cloudy
3:53 PM34.0 °F14.0 °F44 %30.19 in10.0 miWest (280°)16.1 mph25.3 mphMostly Cloudy
4:53 PM34.0 °F14.0 °F44 %30.18 in10.0 miWNW (300°)19.6 mph24.2 mphMostly Cloudy
5:53 PM33.1 °F12.9 °F43 %30.18 in10.0 miNW (310°)19.6 mph27.6 mphScattered Clouds
6:53 PM30.9 °F12.0 °F46 %30.18 in10.0 miNW (320°)19.6 mph24.2 mphScattered Clouds
7:53 PM30.9 °F12.0 °F46 %30.17 in10.0 miNW (320°)16.1 mphClear
8:53 PM30.0 °F12.0 °F47 %30.16 in10.0 miNW (320°)9.2 mphScattered Clouds
9:53 PM27.0 °F12.9 °F56 %30.15 in10.0 miWNW (300°)5.8 mphClear
10:53 PM26.1 °F12.9 °F58 %30.14 in10.0 miNW (310°)8.1 mphClear
11:53 PM27.0 °F12.9 °F56 %30.14 in10.0 miNorth (360°)6.9 mphClear
Hourly data recorded from KCPS, located miles away from St. Louis - Saint Louis University, Missouri







STORIES FROM OUR PARTNERS